COSMOS 2038

Satellite information

Favourite Embed

Satellite Type and Status

PAYLOADIN ORBIT

Key statistics

Satellite COSMOS 2038 at a glance.

Uptime

13194

Days in orbit

Revolutions

≈ 12.7

Per day

Orbit

LEO

Low Earth Orbit

Inclination

82.6

Latest

Satellite identification and parameters

Extended collection of information and parameters for COSMOS 2038.

Object identification

Identified? True

Debris? False

Object name: COSMOS 2038

International designator: 1989-074A

Object number (NORAD): 20232

Object ID (CCSDS): 20232

Country: COMMONWEALTH OF INDEPENDENT STATES (CIS)

Current information (Y/N): Y

RCS size: LARGE

Orbital parameters

Period: 113.796 minutes

Inclination: 82.5752 deg

SMA: 7778.791 km

Apoapsis: 1408.847 km

Periapsis: 1392.464 km

RAAN: 338.1709 deg

Eccentricy: 0.00105302

Argument of periapsis: 223.1303 deg

Mean anomaly: 306.8698 deg

Mean motion: 12.65419814 rev/day

Mean motion (dot): 0.0000002 rev/day2

B* drag term: 0.00004850042 1/REarth

Two-line elements (TLE)

Creation date: Oct. 28, 2025, 7:11 p.m.

Reference frame: TEME

Reference center: EARTH

Epoch: Oct. 28, 2025, 12:50 p.m. UTC

TLE line 0: 0 COSMOS 2038

TLE line 1: 1 20232U 89074A 25301.53540973 .00000020 00000-0 48500-4 0 9997

TLE line 2: 2 20232 82.5752 338.1709 0010530 223.1303 306.8698 12.65419814642164

Live tracking on map

Real-time ground track for satellite COSMOS 2038.

In-orbit conjunctions

A list of the most updated potential collisions computed for object COSMOS 2038.

Target Orbit TCA Probability of collision Miss distance Type
SL-14 DEB LEO 2025-06-08 22:52:59 0.0001239015 828.0 (m) DEBRIS

Associated space launch

Second generation store-dump military communications satellite

COSMOS 2038 was lifted into orbit during the mission ‘Tsiklon-3 | Strela-3 43 to 48’, on board a Tsiklon-3 space rocket.

The launch took place on Sept. 14, 1989, 9:49 a.m. from 32/1.

For more information about the launch, click the button.

Launch to space Tsiklon-3 | Strela-3 43 to 48
Tsiklon-3 | Strela-3 43 to 48

Agency: N/A

Status: Launch Successful

Launch date: Sept. 14, 1989, 9:49 a.m. UTC

Rocket: Tsiklon-3

Launch pad: 32/1

Location: Plesetsk Cosmodrome, Russian Federation

...

Latest news about this satellite

There are no fresh news available about this satellite. Check back as we update our databases every day.


Newsletter sign-up

Weekly statistics, charts and insights to help you stay on top of the space industry.